This demonstration page uses our WeatherBlox Daily Observations layout. Learn more.

Left ArrowRight Arrow

36.17497, -115.13722

Hourly Observations for September 3, 2017

Temp ( °F °C ) Dew Point ( °F °C ) Humidity (%) Winds ( mph kmh ) Pressure ( in mb ) Visibility ( mi km ) Precip ( " mm )
12:53 am 00:53 Clear 88 31.1 49 9.4 26 26 Calm 29.96 1014 10 16 0.00 0.00
1:53 am 01:53 Clear 91 32.8 49 9.4 24 24 SSE 6 9 29.93 1014 10 16 0.00 0.00
2:53 am 02:53 Clear 89 31.7 47 8.3 23 23 Calm 29.94 1014 10 16 0.00 0.00
3:53 am 03:53 Clear 87 30.6 48 8.9 26 26 Calm 29.97 1015 10 16 0.00 0.00
4:53 am 04:53 Clear 85 29.4 48 8.9 28 28 N 6 9 29.98 1015 10 16 0.00 0.00
5:53 am 05:53 Clear 83 28.3 56 13.3 40 40 NE 5 7 30.00 1016 10 16 0.00 0.00
6:53 am 06:53 Sunny 82 27.8 60 15.6 47 47 ENE 6 9 30.02 1017 10 16 0.00 0.00
7:53 am 07:53 Sunny 85 29.4 60 15.6 43 43 NE 6 9 30.03 1017 10 16 0.00 0.00
8:53 am 08:53 Sunny 85 29.4 60 15.6 43 43 E 5 7 30.04 1017 10 16 0.00 0.00
9:53 am 09:53 Sunny 88 31.1 58 14.4 36 36 VRB 3 6 30.04 1017 10 16 0.00 0.00
10:53 am 10:53 Sunny 91 32.8 51 10.6 26 26 SSE 5 7 30.04 1017 10 16 0.00 0.00
11:53 am 11:53 Sunny 95 35 49 9.4 21 21 ENE 6 9 30.01 1016 10 16 0.00 0.00
12:53 pm 12:53 Sunny 96 35.6 49 9.4 20 20 Calm 29.99 1016 10 16 0.00 0.00
1:53 pm 13:53 Sunny 99 37.2 46 7.8 16 16 VRB 3 6 29.96 1015 10 16 0.00 0.00
2:53 pm 14:53 Sunny 101 38.3 46 7.8 15 15 SSE 7 11 29.93 1014 10 16 0.00 0.00
3:53 pm 15:53 Sunny 101 38.3 45 7.2 15 15 SSE 5 7 29.90 1013 10 16 0.00 0.00
4:53 pm 16:53 Sunny 102 38.9 43 6.1 13 13 S 9 15 29.88 1012 10 16 0.00 0.00
5:53 pm 17:53 Sunny 101 38.3 46 7.8 15 15 Calm 29.88 1012 10 16 0.00 0.00
6:53 pm 18:53 Sunny 100 37.8 46 7.8 16 16 Calm 29.88 1012 10 16 0.00 0.00
7:53 pm 19:53 Clear 98 36.7 47 8.3 17 17 ESE 3 6 29.89 1012 10 16 0.00 0.00
8:53 pm 20:53 Clear 98 36.7 51 10.6 20 20 SW 5 7 29.91 1013 10 16 0.00 0.00
9:53 pm 21:53 Clear 96 35.6 47 8.3 19 19 S 8 13 29.92 1013 10 16 0.00 0.00
10:53 pm 22:53 Clear 94 34.4 45 7.2 18 18 S 6 9 29.93 1014 10 16 0.00 0.00
11:53 pm 23:53 Clear 92 33.3 49 9.4 23 23 SSE 5 7 29.93 1013 10 16 0.00 0.00

Powered by AerisWeather